Погода в Тамбове

Погода в Тамбове : погода сейчас, прогноз погоды и архив. Всё, что Вы хотите узнать о погоде в Тамбове!

Поиск расширенной информации на нашем сайте:

Другие новости

Новости СМИ2

Главная страница сайта

Новости сайта

03.07.2017

Напоминаем, что на нашем специализированном сайте Метеоцентр.Азия вы можете получить высокодетализированные автоматические прогнозы погоды по пунктам России, СНГ и мира в авиационном формате (включающие направление и скорость ветра, видимость, явления погоды, количество и форму облачности, нижнюю и верхнюю границу облачности).


Погода в Тамбове - сегодня

Время (UTC), дата Ветер
(°,м/с) 
Видим.   Явления Облачность Т
(°С)
Тd
(°С)
f(%) Тe
(°С)
Pmin
(гПа)
dP
(гПа)
Po
(мм)
O2
(г/м3)
Тmin Tmax R s Состояние
почвы
18 14.04.18 тихо ()   10 км    ясно 
+5.1 -4.3 51 +5  1030.1  0.4  760  301           
21 14.04.18 тихо ()   10 км    ясно 
+1.5 -1.3 82 +2  1030  -0.3  760  305           
00 15.04.18 тихо ()   10 км    ясно 
-1.1 -2.1 93 -1  1030.1  760  308           
06 15.04.18 270 (З) 10 км    6/0 верхняя 
[Ci sp]
+8.4 -1.7 49 +8  1028.7  -0.5  759  297           
09 15.04.18 250 (З) 10 км    8/0 верхняя 
[Ci sp]
+11.9 -4.1 32 +11  1027.3  -1.1  758  293           
12 15.04.18 230 (ЮЗ) 10 км    6/3 1000 м верхняя 
[Cu hum|Ci sp]
+13.7 -3.3 31 +13  1025  -2.2  757  291           
18 15.04.18 тихо ()   10 км    ясно 
+6.6 -2.1 54 +7  1022.2  755  297           
21 15.04.18 130 (ЮВ) 10 км    ясно 
+4.7 -2 62 +6  1022.1  -0.8  754  299           
00 16.04.18 тихо ()   10 км    ясно 
+3.1 -1 74 +3  1021.5  -0.7  754  300           
06 16.04.18 тихо ()   10 км    ясно 
+10.8 +0.2 48 +11  1020.9  -0.1  753  292           
09 16.04.18 230 (ЮЗ) 10 км    3/0 верхняя 
[Ci sp]
+17.2 -2.7 26 +19  1020.1  -0.5  753  286           
12 16.04.18 290 (З) 10 км    4/4 1000 м 
[Cu hum]
+18.5 -2.5 24 +19  1019.1  -0.8  752  284           
18 16.04.18 тихо ()   10 км    6/0 средняя, верхняя 
[Ac trans|Ci sp]
+11.5 -0.2 44 +12  1018.2  0.4  752  291           
21 16.04.18 140 (ЮВ) 10 км    6/0 средняя, верхняя 
[Ac trans|Ci sp]
+9.5 +0.4 53 +11  1017.9  -0.3  751  292           
03 17.04.18 тихо ()   10 км  {дождь}  8/4 1200 м средняя 
[Sc|Ac trans]
+9.2 +3.8 69 +9  1017.7  751  292  +8.7    0.0    влажная 
06 17.04.18 тихо ()   10 км  {дождь}  8/5 1000 м средняя 
[Sc|Ac trans]
+14.1 +6.4 60 +14  1017.7  0.4  751  287           
09 17.04.18 170 (Ю) 10 км    8/0 средняя 
[Ac trans]
+18 +7.8 51 +19  1017.1  -0.4  751  283           
18 17.04.18 тихо ()   10 км    9/0 средняя, верхняя 
[Ac trans|Ci sp]
+13.8 +5.3 56 +14  1015.7  0.3  750  287           
21 17.04.18 140 (ЮВ) 10 км    9/0 средняя 
[Ac trans]
+11.2 +5.8 69 +12  1015.7  -0.1  750  289           
00 18.04.18 150 (ЮВ) 10 км    10/0 средняя 
[Ac trans]
+10.7 +5.9 72 +12  1014.9  -0.8  749  289           
06 18.04.18 180 (Ю) 10 км    10/0 средняя 
[Ac und]
+12.2 +3.8 56 +13  1012.6  -1.2  748  288           
09 18.04.18 200 (Ю) 10 км    10/0 средняя 
[Ac und]
+16 +2.1 39 +16  1010.9  -1.7  746  284           
15 18.04.18 220 (ЮЗ) 7000 м  слаб. дождь  10/10 210 м 
[Frnb|Ns]
+9.8 +8.4 91 +11  1007.3  -2.4  743  288    +16.2     
03 19.04.18 230 (ЮЗ) 10 км  {дождь}  10/10 630 м 
[Sc diur, vesp]
+5.5 +2.8 83 +3  1000.9  -2.7  739  291  +5.4       
15 19.04.18 тихо ()   10 км  слаб. дождь  10/10 270 м 
[Frnb|Ns]
+7.7 +6.4 91 +8  997.6  1.3  736  287    +8.3     
Время (UTC), дата Ветер
(°,м/с) 
Видим.   Явления Облачность Т
(°С)
Тd
(°С)
f(%) Тe
(°С)
Pmin
(гПа)
dP
(гПа)
Po
(мм)
O2
(г/м3)
Тmin Tmax R s Состояние
почвы

Для получения пояснительной информации подведите курсор к названию столбца.

ПОГОДА в Тамбове - архив

Всё, что Вы хотите узнать о погоде в Тамбове - удобно и подробно!

Выберите нужную дату (начиная с 1 января 2015* года) и нажмите кнопку "Найти".
Будут отображены архивные сводки погоды по пункту Тамбов, начиная с указанной даты.


Отображать данные в формате CSV (для использования в таблицах Excel)


Внимание! Наш архив погоды предназначен исключительно для личного некоммерческого использования в познавательных целях. Если Вам необходимы официальные справки о состоянии погоды (для производственных, юридических, коммерческих и т.п. целей), обращайтесь в органы Росгидромета.

*Примечание: данная дата относится к архиву по метеостанциям СССР (Россия, СНГ, Балтия).
Архив по метеостанциям Зарубежной Европы и Азии (кроме Китая) хранится 10 дней, по другим регионам земного шара (Китай, Африка, Америка, Австралия, Океания) - 1 день.

Тамбов - район местоположения метеостанции


Название, широта, долгота, высота метеостанции:
Тамбов 52.8°ш. 41.3°д. 128 м над ур. моря [Российская Федерация]

Дополнительная информация

В oтличие oт бoльшинства пoгoдных сайтoв мы публикуем пoдрoбную метеoинфoрмацию в детальнoм прoфессиoнальнoм фoрмате.

Характеристики температуры и влажнoсти вoздуха измеряются на высoте 2 м в тени вдали oт зданий и деревьев.
Скoрoсть ветра измеряется на высoте 10 м (на урoвне рoста челoвека скoрoсть ветра ниже в 1.5-2 раза). Если метеoстанция нахoдится в гoрoде или в лесу, тo скoрoсть ветра занижена на 2-4 м/с пo сравнению с oткрытым местoм. Скoрoсть ветра над акватoриями крупных рек и oзёр, а также на вершинах хoлмoв на 2-5 м/с выше, чем в oбычных услoвиях.
Атмoсфернoе давление в разных тoчках местнoсти мoжет значительнo oтличаться oт давления на метеoстанции, в зависимoсти oт услoвий рельефа (при пoдъёме на 10 м давление пoнижается примернo на 1 мм рт.ст.).